CW7410 Weather Reports


Display with metric or nautical units.
time (UTC)temp
F
wind
direction
speed
MPH
gust
MPH
rain 1hr
in
rain 24hr
in
rain mn
in
humidity
%
barometer
mb
20260903091604 57 80 2.0 3.0 0.00 0.00 0.00 64 1012.9
20260903090100 57 80 0.0 2.0 0.00 0.00 0.00 63 1012.7
20260903084600 57 80 2.0 3.0 0.00 0.00 0.00 63 1012.6
20260903083059 57 0 0.0 2.0 0.00 0.00 0.00 62 1012.6
20260903081559 57 0 2.0 5.0 0.00 0.00 0.00 62 1012.7
20260903074559 57 320 2.0 5.0 0.00 0.00 0.00 62 1012.5
20260903073113 57 333 3.0 5.0 0.00 0.00 0.00 62 1012.4
20260903071556 58 300 2.0 3.0 0.00 0.00 0.00 61 1012.3
20260903070109 59 0 0.0 4.0 0.00 0.00 0.00 62 1012.2
20260903064602 59 360 1.0 6.0 0.00 0.00 0.00 59 1012.2
20260903063119 60 294 3.0 5.0 0.00 0.00 0.00 57 1012.1
20260903061557 60 328 3.0 6.0 0.00 0.00 0.00 55 1011.8
20260903060055 59 318 3.0 10.0 0.00 0.00 0.00 55 1011.9
20260903054559 58 321 6.0 9.0 0.00 0.00 0.00 57 1011.7
20260903053057 58 319 4.0 8.0 0.00 0.00 0.00 59 1011.8
20260903051601 58 360 2.0 3.0 0.00 0.00 0.00 59 1011.9
20260903050107 58 12 0.0 5.0 0.00 0.00 0.00 59 1011.8
20260903044559 58 351 3.0 5.0 0.00 0.00 0.00 59 1011.6
20260903043108 57 338 2.0 9.0 0.00 0.00 0.00 57 1011.8
20260903041559 58 282 3.0 8.0 0.00 0.00 0.00 59 1011.8
20260903040110 59 360 1.0 2.0 0.00 0.00 0.00 57 1011.5
20260903034600 60 360 2.0 4.0 0.00 0.00 0.00 56 1011.2
20260903033101 61 350 2.0 4.0 0.00 0.00 0.00 53 1011.2
20260903031559 63 360 2.0 4.0 0.00 0.00 0.00 51 1011.1
20260903030108 64 360 2.0 3.0 0.00 0.00 0.00 48 1011.0
20260903024603 66 360 1.0 3.0 0.00 0.00 0.00 47 1011.0
20260903023106 67 360 2.0 4.0 0.00 0.00 0.00 39 1010.9
20260903021601 69 360 3.0 6.0 0.00 0.00 0.00 34 1010.9
20260903020100 70 360 4.0 6.0 0.00 0.00 0.00 34 1010.9
20260903014602 73 360 3.0 8.0 0.00 0.00 0.00 30 1011.1
20260903013058 74 322 3.0 10.0 0.00 0.00 0.00 32 1011.1
20260903011558 75 360 5.0 11.0 0.00 0.00 0.00 27 1011.3
20260903010104 76 360 7.0 14.0 0.00 0.00 0.00 26 1011.4
20260903004623 77 317 7.0 16.0 0.00 0.00 0.00 28 1011.3
20260903003102 78 306 5.0 15.0 0.00 0.00 0.00 30 1011.4
20260903001559 79 313 9.0 15.0 0.00 0.00 0.00 28 1011.2
20260903000059 79 355 8.0 13.0 0.00 0.00 0.00 30 1011.1
20260902234601 79 327 6.0 14.0 0.00 0.00 0.00 30 1011.2
20260902233104 79 275 9.0 12.0 0.00 0.00 0.00 28 1011.3
20260902231600 79 313 5.0 12.0 0.00 0.00 0.00 31 1011.4
20260902230105 80 306 11.0 15.0 0.00 0.00 0.00 28 1011.4
20260902224601 80 273 8.0 15.0 0.00 0.00 0.00 29 1011.5
20260902223116 81 276 10.0 16.0 0.00 0.00 0.00 29 1011.4
20260902221600 81 273 8.0 13.0 0.00 0.00 0.00 30 1011.6
20260902220104 81 248 9.0 14.0 0.00 0.00 0.00 34 1011.7
20260902214558 81 262 5.0 12.0 0.00 0.00 0.00 36 1011.8
20260902213056 82 238 8.0 17.0 0.00 0.00 0.00 32 1011.9
20260902211554 82 274 9.0 16.0 0.00 0.00 0.00 32 1012.1
20260902210056 82 244 7.0 18.0 0.00 0.00 0.00 34 1012.3
20260902204634 82 257 7.0 17.0 0.00 0.00 0.00 34 1012.5
20260902203056 81 195 9.0 20.0 0.00 0.00 0.00 32 1012.5
20260902201603 81 275 10.0 20.0 0.00 0.00 0.00 33 1012.5
20260902200059 81 226 11.0 20.0 0.00 0.00 0.00 30 1012.8
20260902194602 81 244 9.0 20.0 0.00 0.00 0.00 32 1013.1
20260902193058 81 190 13.0 27.0 0.00 0.00 0.00 31 1013.3
20260902191555 81 219 12.0 23.0 0.00 0.00 0.00 31 1013.5
20260902184558 81 225 10.0 24.0 0.00 0.00 0.00 36 1013.7
20260902183109 80 215 11.0 22.0 0.00 0.00 0.00 34 1013.7
20260902181611 80 219 14.0 26.0 0.00 0.00 0.00 35 1013.8
20260902180055 80 206 12.0 26.0 0.00 0.00 0.00 34 1013.8
20260902174559 79 207 14.0 25.0 0.00 0.00 0.00 34 1013.6
20260902173114 79 155 14.0 24.0 0.00 0.00 0.00 35 1013.8
20260902171601 79 157 10.0 23.0 0.00 0.00 0.00 41 1014.0
20260902170057 78 202 12.0 30.0 0.00 0.00 0.00 37 1014.1
20260902164606 78 203 18.0 31.0 0.00 0.00 0.00 35 1014.1
20260902163105 78 198 13.0 26.0 0.00 0.00 0.00 41 1014.1
20260902161600 77 173 12.0 21.0 0.00 0.00 0.00 42 1014.1
20260902160054 77 163 13.0 24.0 0.00 0.00 0.00 45 1014.0
20260902154557 76 198 14.0 26.0 0.00 0.00 0.00 47 1013.9
20260902153106 75 164 12.0 22.0 0.00 0.00 0.00 47 1013.9
20260902151558 74 197 12.0 23.0 0.00 0.00 0.00 47 1013.9
20260902150058 73 173 11.0 22.0 0.00 0.00 0.00 48 1013.9
20260902144555 72 200 11.0 21.0 0.00 0.00 0.00 50 1013.8
20260902143103 71 174 10.0 25.0 0.00 0.00 0.00 52 1013.7
20260902141557 69 188 11.0 21.0 0.00 0.00 0.00 54 1013.5
20260902140055 67 173 10.0 20.0 0.00 0.00 0.00 57 1013.3
20260902134556 65 195 10.0 20.0 0.00 0.00 0.00 60 1013.3
20260902133103 64 138 8.0 17.0 0.00 0.00 0.00 61 1013.2
20260902131558 62 167 9.0 17.0 0.00 0.00 0.00 63 1013.0
20260902130110 62 138 8.0 13.0 0.00 0.00 0.00 64 1012.9
20260902124556 62 122 7.0 13.0 0.00 0.00 0.00 63 1012.9
20260902123057 62 116 7.0 11.0 0.00 0.00 0.00 62 1012.8
20260902121557 63 155 6.0 12.0 0.00 0.00 0.00 61 1013.0
20260902120058 64 142 7.0 11.0 0.00 0.00 0.00 60 1012.9
20260902114557 64 140 9.0 15.0 0.00 0.00 0.00 59 1012.9
20260902113056 63 123 10.0 14.0 0.00 0.00 0.00 61 1012.9
20260902111602 62 160 4.0 11.0 0.00 0.00 0.00 61 1012.8
20260902110103 63 186 3.0 7.0 0.00 0.00 0.00 60 1012.9
20260902104614 64 138 2.0 10.0 0.00 0.00 0.00 59 1012.9
20260902103107 64 107 7.0 12.0 0.00 0.00 0.00 58 1012.8
20260902101605 65 96 7.0 14.0 0.00 0.00 0.00 57 1013.0
20260902100055 66 155 8.0 14.0 0.00 0.00 0.00 56 1012.9
20260902094556 66 109 11.0 17.0 0.00 0.00 0.00 56 1012.9
20260902093059 66 167 12.0 19.0 0.00 0.00 0.00 57 1013.1